Weather History for Newark Heath, OH

Change the Weather History Date:

Saturday, October 29, 2011

  Actual Average Record
Temperature  
Mean Temperature 38 °F -  
Max Temperature 52 °F 58 °F 78 °F (1946)
Min Temperature 26 °F 36 °F 21 °F (1965)
Degree Days  
Heating Degree Days 27    
Moisture  
Dew Point 30 °F    
Average Humidity 91    
Maximum Humidity 100    
Minimum Humidity 52    
Precipitation  
Precipitation 0.05 in - - ()
Sea Level Pressure  
Sea Level Pressure 30.09 in    
Wind  
Wind Speed 0 mph (SW)    
Max Wind Speed 8 mph    
Max Gust Speed -    
Visibility 3 miles    
Events Fog , Rain , Thunderstorm    
Averages and records for this station are not official NWS values.
T = Trace of Precipitation, MM = Missing Value Source: NWS Daily Summary

Daily Weather History Graph

Daily Weather History Graph

Search for Another Location

Airport:

Trip Planner

Search our weather history database for the weather conditions in past years. The results will help you decide how hot, cold, wet, or windy it might be!

Date:

Astronomy

Oct. 29, 2011 Rise Set
Actual Time 7:55 AM EDT 6:31 PM EDT
Civil Twilight 7:27 AM EDT 6:59 PM EDT
Nautical Twilight 6:55 AM EDT 7:31 PM EDT
Astronomical Twilight 6:23 AM EDT 8:02 PM EDT
Moon 11:15 AM EDT (10/29) 8:53 PM EDT (10/29)
Length of Visible Light 11h 31m
Length of Day
10h 36m
Waxing Crescent, 11% of the Moon is Illuminated
Oct 29
Waxing Crescent
Nov 2
First Quarter
Nov 10
Full
Nov 18
Last Quarter
Nov 25
New

Hourly Weather History & Observations

Time (EDT) Temp. Windchill Dew Point Humidity Pressure Visibility Wind Dir Wind Speed Gust Speed Precip Events Conditions
12:13 AM 33.8 °F - 30.2 °F 87% 30.11 in 1.8 mi Calm Calm - N/A   Clear
12:23 AM 33.8 °F - 30.2 °F 87% 30.10 in 3.0 mi Calm Calm - N/A   Clear
12:54 AM 32.0 °F - 30.9 °F 96% 30.12 in 3.0 mi Calm Calm - N/A   Clear
1:13 AM 32.0 °F - 30.2 °F 93% 30.09 in 1.8 mi Calm Calm - N/A   Clear
1:24 AM 30.2 °F - 30.2 °F 100% 30.09 in 0.8 mi Calm Calm - N/A   Clear
1:32 AM 30.2 °F - 30.2 °F 100% 30.09 in 2.0 mi Calm Calm - N/A   Clear
1:40 AM 30.2 °F - 30.2 °F 100% 30.09 in 3.0 mi Calm Calm - N/A   Clear
1:54 AM 30.9 °F - 28.9 °F 92% 30.10 in 5.0 mi Calm Calm - N/A   Clear
2:01 AM 30.2 °F - 28.4 °F 93% 30.08 in 1.5 mi Calm Calm - N/A   Clear
2:09 AM 30.2 °F - 28.4 °F 93% 30.08 in 0.5 mi Calm Calm - N/A Fog Light Freezing Fog
2:11 AM 30.2 °F - 28.4 °F 93% 30.08 in 0.2 mi Calm Calm - N/A Fog Light Freezing Fog
2:37 AM 28.4 °F - 26.6 °F 93% 30.07 in 0.8 mi Calm Calm - N/A   Mist
2:39 AM 28.4 °F - 26.6 °F 93% 30.07 in 1.2 mi Calm Calm - N/A   Scattered Clouds
2:42 AM 28.4 °F - 26.6 °F 93% 30.08 in 3.0 mi Calm Calm - N/A   Scattered Clouds
2:54 AM 28.0 °F - 27.0 °F 96% 30.10 in 3.0 mi Calm Calm - N/A   Partly Cloudy
4:23 AM 28.4 °F - 26.6 °F 93% 30.07 in 1.8 mi Calm Calm - N/A   Clear
4:34 AM 28.4 °F - 26.6 °F 93% 30.07 in 3.0 mi Calm Calm - N/A   Clear
4:49 AM 28.4 °F - 26.6 °F 93% 30.07 in 1.5 mi Calm Calm - N/A   Clear
4:54 AM 27.0 °F - 25.0 °F 92% 30.09 in 0.5 mi Calm Calm - N/A Fog Light Freezing Fog
5:04 AM 26.6 °F - 24.8 °F 93% 30.07 in 1.2 mi Calm Calm - N/A   Scattered Clouds
6:12 AM 26.6 °F - 24.8 °F 93% 30.08 in 3.0 mi Calm Calm - N/A   Clear
6:54 AM 27.0 °F - 25.0 °F 92% 30.09 in 6.0 mi Calm Calm - N/A   Mostly Cloudy
7:34 AM 26.6 °F - 24.8 °F 93% 30.08 in 3.0 mi Calm Calm - N/A   Scattered Clouds
7:47 AM 26.6 °F 22.6 °F 24.8 °F 93% 30.08 in 2.5 mi ENE 3.5 mph - N/A   Mostly Cloudy
7:54 AM 28.0 °F - 26.1 °F 92% 30.11 in 1.8 mi Calm Calm - N/A   Mostly Cloudy
8:00 AM 28.4 °F - 26.6 °F 93% 30.08 in 0.2 mi Calm Calm - N/A Fog Light Freezing Fog
8:54 AM 28.9 °F - 28.0 °F 96% 30.11 in 0.2 mi Calm Calm - N/A Fog Light Freezing Fog
9:54 AM 30.9 °F - 30.0 °F 96% 30.13 in 0.2 mi Calm Calm - N/A Fog Light Freezing Fog
11:39 AM 37.4 °F 33.8 °F 35.6 °F 93% 30.10 in 0.8 mi SW 4.6 mph - N/A   Overcast
11:54 AM 37.9 °F 35.5 °F 37.0 °F 97% 30.12 in 2.5 mi SSW 3.5 mph - N/A   Overcast
12:02 PM 37.4 °F 34.9 °F 37.4 °F 100% 30.10 in 3.0 mi South 3.5 mph - N/A   Mostly Cloudy
12:11 PM 37.4 °F 34.9 °F 37.4 °F 100% 30.09 in 4.0 mi Variable 3.5 mph - N/A   Scattered Clouds
1:54 PM 48.0 °F - 35.1 °F 61% 30.07 in 10.0 mi Calm Calm - N/A   Mostly Cloudy
2:54 PM 50.0 °F - 33.1 °F 52% 30.06 in 10.0 mi West 6.9 mph - N/A   Mostly Cloudy
3:54 PM 48.9 °F - 33.1 °F 54% 30.06 in 10.0 mi West 3.5 mph - N/A   Mostly Cloudy
4:54 PM 48.9 °F - 35.1 °F 59% 30.06 in 10.0 mi SW 8.1 mph - N/A   Scattered Clouds
5:54 PM 44.1 °F - 35.1 °F 71% 30.08 in 5.0 mi Calm Calm - 0.05 in Rain , Thunderstorm Thunderstorms and Rain
6:08 PM 42.8 °F - 35.6 °F 76% 30.05 in 7.0 mi Calm Calm - 0.01 in Rain Light Rain
7:54 PM 39.9 °F - 36.0 °F 86% 30.11 in 10.0 mi Calm Calm - 0.00 in   Mostly Cloudy
8:54 PM 37.0 °F - 35.1 °F 93% 30.12 in 10.0 mi Calm Calm - N/A   Clear
9:54 PM 33.1 °F - 32.0 °F 96% 30.13 in 4.0 mi Calm Calm - N/A   Clear
10:36 PM 33.8 °F - 32.0 °F 93% 30.11 in 2.5 mi Calm Calm - N/A   Clear
10:49 PM 30.2 °F - 30.2 °F 100% 30.12 in 0.8 mi Calm Calm - N/A   Clear
10:54 PM 30.9 °F - 30.0 °F 96% 30.14 in 0.5 mi Calm Calm - N/A Fog Light Freezing Fog
11:01 PM 30.2 °F - 30.2 °F 100% 30.12 in 0.5 mi Calm Calm - N/A Fog Light Freezing Fog
11:07 PM 30.2 °F - 30.2 °F 100% 30.12 in 2.0 mi Calm Calm - N/A   Partly Cloudy
11:31 PM 30.2 °F - 30.2 °F 100% 30.13 in 3.0 mi Calm Calm - N/A   Clear
11:51 PM 30.2 °F - 30.2 °F 100% 30.12 in 2.5 mi Calm Calm - N/A   Clear
11:54 PM 30.9 °F - 30.0 °F 96% 30.15 in 2.0 mi Calm Calm - N/A   Clear